Regional Weather Roundup
Issued by NWS Wakefield, VA

Home | Current Version | Previous Version | Graphics & Text | Print | Product List | Glossary On
Versions: 1 2 3 4 5 6 7 8 9 10 11 12 13 14 15 16 17 18 19 20 21 22 23 24 25 26
000
ASUS41 KAKQ 241815
RWRAKQ

REGIONAL WEATHER ROUNDUP
NATIONAL WEATHER SERVICE WAKEFIELD VA
200 PM EDT WED MAY 24 2017

Note: "fair" indicates few or no clouds below 12,000 feet with no
significant weather and/or obstructions to visibility. * = Denotes
station may not report precipitation (e.g., rain,snow,etc.),
thunder or fog.

VAZ042-051-052>054-056-241900-
NORTHERN VIRGINIA

CITY           SKY/WX    TMP DP  RH WIND       PRES   REMARKS
WASH NATIONAL  CLOUDY    64  57  78 E12       29.74R
DULLES         CLOUDY    63  54  72 E9        29.74R
FORT BELVOIR   CLOUDY    64  56  77 CALM      29.74R
QUANTICO       CLOUDY    64  60  87 SE9       29.74R
FREDERICKSBRG* CLOUDY    64  61  90 SE7       29.72S
STAFFORD*      CLOUDY    62  60  93 E8        29.77R
WARRENTON      CLOUDY    64  56  75 E6        29.72S
CULPEPER*      CLOUDY    64  59  83 SE5       29.72F
MANASSAS*      CLOUDY    64  57  78 SE8       29.73R
LEESBURG*      CLOUDY    64  57  77 SE7       29.74S
WINCHESTER     CLOUDY    61  54  77 SE9       29.72S
FRONT ROYAL*   CLOUDY    61  55  82 E5        29.70S
LURAY*         CLOUDY    64  55  72 N6        29.69S
$$

VAZ048-049-060>072-079>083-241900-
CENTRAL AND SOUTH CENTRAL VIRGINIA

CITY           SKY/WX    TMP DP  RH WIND       PRES   REMARKS
RICHMOND       CLOUDY    63  60  90 E7        29.72F
CHESTERFIELD*  NOT AVBL
PETERSBURG*    CLOUDY    64  60  86 CALM      29.72F
HANOVER        CLOUDY    64  58  80 VRB5      29.73F
TAPPAHANNOCK*  CLOUDY    63  62  97 E5        29.76R
QUINTON*       CLOUDY    63  61  94 MISG      29.72S
CHARLOTTSVILLE CLOUDY    62  58  86 E6        29.71F
GORDONSVILLE*  CLOUDY    61  58  92 SE3       29.73R
ORANGE*        CLOUDY    61  57  88 CALM      29.73S
LOUISA*        CLOUDY    64  63  94 CALM      29.72S
BUMPASS*       CLOUDY    61  60  98 E7        29.72F
FARMVILLE*     CLOUDY    64  58  81 E7        29.69F
CREWE*         CLOUDY    62  58  87 E3        29.70F
FORT PICKETT*  CLOUDY    62  58  88 E8G18     29.71F
CHASE CITY*    CLOUDY    64  62  94 E3        29.69F
CLARKSVILLE*   CLOUDY    64  64 100 E5        29.67F
SOUTH HILL*    CLOUDY    65  64  93 SE3       29.74F
LAWRENCEVILLE* CLOUDY    66  62  86 SE9       29.69F
EMPORIA*       CLOUDY    68  63  83 NE6       29.71F
$$

VAZ088>098-241900-
SOUTHEAST VIRGINIA

CITY           SKY/WX    TMP DP  RH WIND       PRES   REMARKS
NORFOLK        CLOUDY    63  59  87 NE9       29.73R
VIRGINIA BEACH CLOUDY    64  57  78 NE6       29.73R
NORFOLK NAVAL  CLOUDY    65  58  78 E6        29.75R
WEST POINT*    CLOUDY    64  59  85 E6        29.74S
SALUDA*        CLOUDY    62  60  92 E5        29.75R
NEWPORT NEWS   CLOUDY    64  59  83 E7        29.73R
LANGLEY AFB    CLOUDY    64  59  86 E7        29.73R
FORT EUSTIS    CLOUDY    65  59  81 SE6       29.71R
WILLIAMSBURG*  CLOUDY    64  63  94 CALM      29.74S
HR EXEC AP*    CLOUDY    66  59  77 CALM      29.71F
FRANKLIN*      CLOUDY    67  61  82 E6        29.72F
US460-WAKEFLD  CLOUDY    65  61  87 CALM      29.73S
$$

VAZ020-022-025-037-045-241900-
WEST CENTRAL AND SOUTHWEST VIRGINIA

CITY           SKY/WX    TMP DP  RH WIND       PRES   REMARKS
STAUNTON*      CLOUDY    59  55  84 SE7       29.72F
WAYNESBORO*    CLOUDY    56  56 100 SE8       29.71F
HOT SPRINGS VA RAIN      43  43 100 SE13      29.72R VSB<1/4
LYNCHBURG      LGT RAIN  59  58  96 VRB5      29.71R FOG
DANVILLE       CLOUDY    63  63 100 E6        29.65F FOG
SOUTH BOSTON*  CLOUDY    64  63  94 E8        29.67F
MARTINSVILLE   CLOUDY    61  60  96 E6        29.67F FOG
ROANOKE        LGT RAIN  58  58 100 E12       29.69F FOG
BLACKSBURG     CLOUDY    58  56  92 E10       29.68F FOG
DUBLIN*        CLOUDY    62  55  78 E13       29.64F
MARION*        CLOUDY    64  58  81 SE9G16    29.61F
HILLSVILLE*    CLOUDY    59  55  86 E9G22     29.62F FOG
RICHLANDS*     CLOUDY    61  58  90 SE8G21    29.53F
WISE*          TSTM      63  63 100 SE5       29.53R
ABINGDON*      CLOUDY    69  59  69 S10G17    29.51F
$$

MDZ021>025-VAZ099-100-241900-
SOUTHERN MARYLAND AND THE DELMARVA PENINSULA

CITY           SKY/WX    TMP DP  RH WIND       PRES   REMARKS
PATUXENT RIVER CLOUDY    62  61  96 E8        29.73S
BAY BRIDGE APT CLOUDY    64  57  77 CALM      29.75R
LEONARDTOWN    CLOUDY    61  57  88 NE5       29.75S
DOVER          PTSUNNY   67  64  89 SE8       29.74R
GEORGETOWN     CLOUDY    65  53  65 E12       29.77R
EASTON         PTSUNNY   64  55  72 SE7       29.78R
CAMBRIDGE      CLOUDY    63  57  82 E12       29.75R
SALISBURY      CLOUDY    62  57  83 NE12      29.75R
OCEAN CITY     CLOUDY    60  54  80 E10       29.76R
WALLOPS ISLAND CLOUDY    61  57  87 NE14      29.76R
ACCOMACK*      CLOUDY    63  49  60 E7        29.74R
$$

NCZ012>017-030>032-241900-
NORTH CENTRAL AND EASTERN NORTH CAROLINA

CITY           SKY/WX    TMP DP  RH WIND       PRES   REMARKS
ROANOKE RAPIDS CLOUDY    70  64  83 E3        29.69S
RALEIGH        CLOUDY    73  66  78 SE9       29.65F
ELIZABETH CITY MOSUNNY   70  65  84 NE7       29.71F
AHOSKIE*         N/A     70  64  83 E3        29.69F
EDENTON*       PTSUNNY   74  66  75 CALM      29.71S
CURRITUCK*     CLOUDY    67  63  86 NE3       29.74R
KILL DEVIL HLS PTSUNNY   65  60  85 CALM      29.72R
MANTEO         CLOUDY    67  62  83 NE7       29.73R
CAPE HATTERAS  NOT AVBL
TARBORO*       NOT AVBL
GOLDSBORO      PTSUNNY   77  72  85 SE7       29.65F
WASHINGTON     MOSUNNY   76  67  73 S6        29.68F
GREENVILLE     CLOUDY    77  68  73 S6        29.71F
NEW BERN       CLOUDY    75  69  81 E6        29.69F
WILMINGTON     PTSUNNY   81  70  69 S12G24    29.66F
$$

VAZ048-241900-
ELSEWHERE

CITY           SKY/WX    TMP DP  RH WIND       PRES   REMARKS
HARRISBURG PA  CLOUDY    69  56  62 SE8       29.71F
BALTIMORE      CLOUDY    64  57  78 E9        29.74S
ANNAPOLIS      CLOUDY    65  59  81 E6        29.75R
ANDREWS AFB    CLOUDY    62  56  81 E8        29.74R
PHILADELPHIA   PTSUNNY   70  52  52 E13       29.73F
GREENSBORO     CLOUDY    70  66  87 SE9       29.61F
ROCKY MOUNT    CLOUDY    73  67  81 E6        29.68S
$$

VAZ100-241900-
MARINE

STATION/POSITION TIME  TEMP    WIND        PRES    WAVE   SWELL
                       AIR SEA DIR/SP/G            HT/PER HT/PER
                 (UTC) (F)     (DEG/KT/KT) (MB)    (FT/S) (FT/S)
CAPE MAY NJ      1748   63 61   60/  7/ 13 1006.7R
LEWES DE         1748   60 62   80/ 12/ 16 1007.3R
15NM E FENWICK I 1650   57 56   10/ 12/ 14 1006.9    5/ 6   3/ 6
WACHAPREAGUE VA  1748   61 66   50/ 12/ 15 1006.8R
THOMAS POINT MD  1800   62 64   90/  4/  5   N/A
GOOSES REEF MD   1800   62 62  150/  4/  6 1008.0    0
COVE POINT MD    1748   61     130/ 11/ 13 1007.7R
SOLOMONS ISLAND  1748   62 67  100/  7/  9   N/A
BISHOPS HEAD MD  1748   63 65   80/ 10/ 12 1007.3R
PINEY POINT MD   1742          110/  7/  8   N/A
POTOMAC MD       1800   62 66  110/  8/ 10 1006.1    1
CAMBRIDGE MD     1742   63 68                N/A
RAPPAHANNOCK LGT 1742           90/  5/  5 1007.7R
STINGRAY PT      1750   62     140/  4/  6 1007.4R
YORK RVR RNG VA  1748   63     110/  7/  8 1006.3R
YORKTOWN VA      1748   63 69  100/  7/  9 1006.5R
JAMESTOWN VA     1800   64 72  130/  8/ 10   N/A
DOMINION TERM VA 1748   65      40/  2/  6 1006.9R
KIPTOPEKE VA     1748      65   70/  6/  9   N/A
CHES BAY BRIDGE  1748   61 66   90/  8/  9 1006.9R
CAPE HENRY VA    1748   61      70/  7/  8   N/A
WILLOUBY STN VA  1748   63      70/  6/  7 1006.8R
S CRANEY ISL VA  1748   64      60/  5/  7 1006.5R
CAPE HENRY BUOY  1742      62                N/A     4/ 6
1ST LANDING BUOY 1800   61 66              1007.4    1/ 3
CAPE CHARLES BUO 1751      62                N/A     4/ 7
64NM E OF VA BCH 1750   60 64  310/  8/ 10 1007.4R   5/ 7   5/ 7
DUCK PIER NC     1748   62 65   30/  9/ 10 1006.1R
44100 DUCK FRF   1705      63                N/A     4/ 8
44056 DUCK FRF   1730      65                N/A     3/ 5
OREGON INLET NC  1742   65 69   30/  7/  9 1006.4R
HATTERAS NC      1748   74 73  210/  4/  6 1006.1R
DIAMOND SHLS NC  1750   74 75  210/  6/  8 1006.3F   5/ 8   5/ 8
CAPE LOOKOUT NC  1700   73     160/  6/  6 1005.9F
$$




USA.gov is the U.S. government's official web portal to all federal, state and local government web resources and services.